www.pogodaiklimat.ru
ПОГОДА в Батлере
Время
и дата
22:34 17.04
22:42 17.04
22:56 17.04
23:05 17.04
23:56 17.04
00:56 18.04
01:56 18.04
02:56 18.04
03:56 18.04
04:56 18.04
05:56 18.04
06:56 18.04
07:56 18.04
08:51 18.04
08:56 18.04
09:22 18.04
09:56 18.04
10:29 18.04
10:52 18.04
10:56 18.04
11:39 18.04
11:51 18.04
11:56 18.04
12:56 18.04
13:56 18.04
14:56 18.04
15:56 18.04
16:56 18.04
17:56 18.04
18:56 18.04
19:56 18.04
20:56 18.04
21:56 18.04
22:56 18.04
23:56 18.04
00:56 19.04
01:56 19.04
02:56 19.04
03:56 19.04
04:56 19.04
05:56 19.04
06:56 19.04
07:56 19.04
08:56 19.04
09:56 19.04
10:56 19.04
11:15 19.04
11:56 19.04
Ветер
(напр.,м/с)
Видим. Явления Облачность Т
(С)
Тd
(С)
f
(%)
Тe
(С)
Тes
(С)
Комфортность P
(гПа)
Po
(гПа)
Тmin
(С)
Tmax
(С)
R
(мм)
R24
(мм)
S
(см)
Ю 2 16 км 8/8 810 м +14.0 +14.0 100 +13 +13 967.6
Ю 2 16 км 8/8 810 м +14.0 +14.0 100 +13 +13 967.9
ЮЗ 2 16 км 8/8 750 м +14.4 +13.9 97 +14 +14 1013.0 967.9
ЮЗ 2 16 км 2/2 750 м +14.0 +14.0 100 +13 +13 967.9
ЮЗ 3 16 км ясно +13.9 +13.3 96 +13 +13 1013.2 968.2
ЮЗ 3 16 км 2/2 930 м +13.9 +13.3 96 +13 +13 1013.3 968.2 +13.3 +15.6
З 2 16 км 8/8 1800 м +13.3 +12.8 97 +12 +12 1013.4 968.6
З 3 16 км 10/10 1800 м +13.3 +12.2 93 +12 +12 1013.8 968.9
З 6 16 км 10/10 1500 м +13.3 +11.1 87 +11 +11 1014.0 969.2 0.5
З 5 16 км 10/10 1290 м +13.3 +10.0 80 +11 +11 1014.5 969.5
З 5 16 км 10/10 780 м +12.8 +10.0 83 +11 +11 1015.1 970.2
З 4 16 км 10/10 750 м +12.8 +10.0 83 +11 +11 1016.4 970.8 +12.8 +13.9 0.5
З 3 16 км 10/10 1110 м +13.3 +10.0 80 +12 +12 1016.9 971.5
З 5 16 км 10/10 660 м +14.0 +11.0 82 +12 +12 972.1
З 6 16 км 10/10 660 м +13.9 +10.0 77 +12 +12 1018.0 972.5
З 5
{9}
16 км 10/10 660 м +14.0 +9.0 72 +12 +12 973.1
З 4 16 км 10/10 780 м +13.9 +9.4 74 +12 +12 1019.3 973.7
З 6 16 км 10/10 810 м +14.0 +9.0 72 +12 +12 973.7
З 3 16 км 10/10 840 м +14.0 +9.0 72 +13 +13 973.4
З 4 16 км 10/10 840 м +14.4 +9.4 72 +13 +13 1018.9 973.1
З 5 16 км 10/10 870 м +15.0 +9.0 67 +14 +14 973.1
З 3 16 км 10/10 810 м +15.0 +9.0 67 +14 +14 973.4
З 4 16 км 10/10 810 м +15.0 +9.4 69 +14 +14 1019.0 973.4
СЗ 3 16 км 8/8 1080 м +16.7 +8.9 60 +17 +19 1018.9 973.4 +12.8 +16.7 0.3
СЗ 2 16 км 2/2 1080 м +17.2 +8.9 58 +18 +31 опасность
простуды
1018.4 972.8
нст 2 16 км 5/5 1260 м +18.3 +9.4 56 +19 +26 1018.1 972.8
З 4 16 км 2/2 1380 м +19.4 +8.9 51 +20 +26 1018.1 972.8 0.3
нст 2 16 км ясно +20.0 +8.9 49 +22 +29 комфорт 1018.1 972.8
СЗ 2 16 км ясно +19.4 +8.9 51 +21 +24 комфорт 1018.2 972.8
С 2 16 км ясно +17.2 +7.8 54 +18 +18 1018.1 972.5 +16.1 +20.0 0.3
СВ 2 16 км ясно +15.6 +8.3 62 +16 +16 1018.2 972.5
В 2 16 км ясно +13.3 +8.9 75 +13 +13 1018.2 972.5
ЮВ 3 16 км ясно +13.3 +7.8 69 +12 +12 1017.5 971.8
ЮВ 3 16 км ясно +13.3 +8.3 72 +12 +12 1017.0 971.5
ЮВ 3 16 км ясно +13.3 +8.3 72 +12 +12 1016.4 970.8
ЮВ 2 16 км ясно +13.3 +7.8 69 +13 +13 1015.4 969.9 +12.8 +17.2 0.3
В 2 16 км ясно +9.4 +7.8 90 +8 +8 1014.9 969.2
В 3 16 км ясно +8.9 +7.8 93 +6 +6 1014.2 968.9
В 5 16 км 2/0 2700 m
[Ac]
+11.7 +8.3 80 +9 +9 1013.0 967.6
В 5 16 км 8/0 3000 m
[Ac]
+12.2 +7.8 74 +10 +10 1012.0 967.0
ЮВ 4 16 км слабый дождь 10/0 3000 m
[Ac As]
+13.3 +7.8 69 +12 +12 1012.3 967.3
ЮВ 3 16 км 2/0 2400 m
[Ac]
+13.9 +7.8 67 +13 +13 1012.4 967.3 +7.8 +13.9 0.8
ЮЗ 4 16 км дождь 10/2 1500 m
[Ac Ns]
+13.9 +9.4 74 +12 +13 1013.7 968.2
ЮЗ 2 16 км 10/0 2400 m
[Ac]
+13.9 +12.2 89 +13 +15 1013.7 968.2
ЮЗ 6
{8}
16 км 10/8 930 m
[Ac]
+17.8 +13.3 75 +17 +17 1013.7 968.2 1.3
З 7
{9}
16 км 10/10 900 м +18.3 +12.8 70 +18 +18 1013.5 968.2
З 7
{9}
16 км 10/10 840 м +18.0 +13.0 73 +17 +17 968.2
ЮЗ 4 16 км 10/10 780 м +17.8 +13.9 78 +18 +18 1013.7 968.6
Местоположение метеостанции Butler County Airport: широта 40.7833 долгота -79.9500 высота над уровнем моря 380 м.
В архиве по умолчанию представлена погода в Батлере за последние 1-2 суток. Обновление информации о фактической погоде в базе происходит ежечасно! Архивные данные за месяц целиком и за предыдущие месяцы Вы можете получить, выбрав интересующий диапазон дат из раскрывающегося списка и нажав кнопку "Ввод!".
Внимание! Архив погоды МЕТАР в базе сайта по станциям, не включенным в климатический монитор, хранится не более 60 дней. Нет смысла пытаться выбрать более раннюю дату.
*Определитесь, кто Вы:
Внимание! Время в таблицах - местное (без учета летнего времени). Для получения всемирного времени необходимо вычесть поправку, которая равна -5 ч.
Смотрите также архив погоды в соседних городах и на ближайших метеорологических станциях:
Партнеры нашего сайта:      
Пояснения к столбцам:
  • Ветер - указаны скорость ветра в м/с - средняя за 10 мин, порывы в срок и между сроками (в фигурных скобках) и направление, откуда дует ветер: С - северный,
  • СВ - северо-восточный, В - восточный, ЮВ - юго-восточный, Ю - южный, ЮЗ - юго-западный, З - западный, СЗ - северо-западный.
  • Видимость - горизонтальная дальность видимости в метрах или километрах. При видимости от 1 до 10 км при отсутствии осадков обычно наблюдается дымка, при ухудшении видимости до 1 км и менее - туман. В сухую погоду видимость может ухудшаться дымом, пылью или мглою.
  • Явления - указаны атмосферные явления, наблюдавшиеся в срок или в последний час перед сроком; фигурными скобками обозначены явления, наблюдавшиеся между сроками (за 1-3 часа до срока); квадратными скобками обозначены град или гололедные отложения с указанием их диаметра в мм.
  • Облачность - указаны через наклонную черту общая и нижняя облачность в баллах и высота нижней границы облаков в метрах; квадратными скобками обозначены формы облаков: Ci - перистые, Cs - перисто-слоистые, Cc - перисто-кучевые, Ac - высококучевые, As - высокослоистые, Sc - слоисто-кучевые, Ns - слоисто-дождевые, Cu - кучевые, Cb - кучево-дождевые. Подробнее классификацию облаков см. в Атласе облаков (PDF).
  • T - Температура воздуха - температура, измеренная на высоте 2 м над землей.
  • Td - Температура точки росы - температура, при понижении до которой содержащийся в воздухе водяной пар достигнет насыщения.
  • f - Относительная влажность воздуха - влажноcть воздуха, измеренная на высоте 2 м над землей.
  • Te - Эффективная температура - температура, которую ощущает одетый по сезону человек в тени. Характеристика душности погоды. При расчете учитывается влияние влажности воздуха и скорости ветра на теплоощущения человека.
  • Tes - Эффективная температура на солнце - температура, которую ощущает человек, с поправкой на солнечный нагрев. Характеристика знойности погоды. Зависит от высоты солнца над горизонтом, облачности и скорости ветра. Ночью, в пасмурную погоду, а также при ветре 12 м/с и более поправка равна нулю.
  • P - Атмосферное давление - приведенное к уровню моря атмосферное давление.
  • Po - Атмосферное давление - измеренное на уровне метеостанции атмосферное давление.
  • Tmin - Минимальная температура - минимум температуры воздуха на высоте 2 м над землей.
  • Tmax - Максимальная температура - максимум температуры воздуха на высоте 2 м над землей.
  • R - Количество осадков - Количество выпавших осадков за период времени, мм. При наведении курсора мыши на число - период времени, за который выпало указанное количество осадков.
  • R24 - Количество осадков - Количество выпавших осадков за 24 часа, мм.
  • S - Снежный покров - Высота снежного покрова, см. При наведении курсора мыши на число - состояние снежного покрова и степень покрытия местности в баллах.